Overview Statistics Trail Chart Weather Telemetry Raw packets
 

This is the latest recevied weather packets stored in our database for station/object K7DC. If no packets are shown the sender has not sent any weather packets the latest 10 day(s).

<< 59 60 61 62 63 64 65 >>
Time Temp. Humidity Pressure Rain* Wind** Luminosity Snow
1788231684 24.44° C 75% 1016.4 hPa 0 mm - 0 W/m² -
1788231384 24.44° C 75% 1016.6 hPa 0 mm - 0 W/m² -
1788231079 24.44° C 76% 1016.3 hPa 0 mm - 0 W/m² -
1788230779 24.44° C 77% 1016.4 hPa 0 mm - 0 W/m² -
1788230478 25° C 76% 1016.1 hPa 0 mm - 0 W/m² -
1788230176 25° C 77% 1016.3 hPa 0 mm - 0 W/m² -
1788229872 25° C 74% 1015.9 hPa 0 mm - 0 W/m² -
1788229567 25° C 75% 1015.9 hPa 0 mm - 0 W/m² -
1788229262 25° C 74% 1016.1 hPa 0 mm - 0 W/m² -
1788228958 25° C 71% 1016 hPa 0 mm - 0 W/m² -
1788228652 25° C 71% 1015.6 hPa 0 mm - 0 W/m² -
1788228348 25° C 69% 1015.6 hPa 0 mm - 0 W/m² -
1788228043 25° C 73% 1015.6 hPa 0 mm - 0 W/m² -
1788227739 25° C 70% 1015.6 hPa 0 mm - 1 W/m² -
1788227439 25° C 70% 1015.5 hPa 0 mm - 2 W/m² -
1788227134 25° C 68% 1015.6 hPa 0 mm - 3 W/m² -
1788226844 25.56° C 69% 1015.1 hPa 0 mm - 3 W/m² -
1788226526 25.56° C 69% 1015.1 hPa 0 mm - 4 W/m² -
1788226221 25.56° C 69% 1015.3 hPa 0 mm - 7 W/m² -
1788225921 25.56° C 70% 1015 hPa 0 mm - 12 W/m² -
1788225616 25.56° C 68% 1015 hPa 0 mm - 20 W/m² -
1788225313 25.56° C 69% 1014.8 hPa 0 mm - 24 W/m² -
1788225010 25.56° C 68% 1015 hPa 0 mm - 29 W/m² -
1788224705 25.56° C 68% 1015.2 hPa 0 mm - 34 W/m² -
1788224405 26.11° C 67% 1015 hPa 0 mm - 38 W/m² -

* Rain latest hour (hover to see other rain measurements)
** Current wind speed in m/s (hover to see current wind gust speed)